Date String (YYYY-MM-DD hh:mm:ss) UTC,Instrument flags,absolute air pressure of the measurement (hPa),sample flow rate (lpm),inlet stack bypass flow (lpm),air temperature of the measurement (°C),ambient temperature measured by the external sensor (°C),aerosol sample conditioner tube jacket temperature (°C),OPC LED temperature (°C),internal box temperature (°C),relative humidity of the measurement (%),span deviation,mass concentration of particles derived from Lorenz-Mie calculation of OPC scattering (μg/m³),mass concentration of particles derived from Lorenz-Mie calculation of OPC scattering (μg/m³),mass concentration of particles derived from Lorenz-Mie calculation of OPC scattering (μg/m³)
DateTimeUTC,F1_M11,P_M11,Q1_M11,Q2_M11,T1_M11,T2_M11,T3_M11,T4_M11,T5_M11,U1_M11,ZSPAN_M11,X0_M11,X2_M11,X1_M11
2023-09-20 21:00:00,SystemResetWarning,0827.2,5.00,000.00,027.5,024.8,000.0,035.9,029.0,17.2,0000.0,0011.18,0003.06,0002.30
2023-09-20 21:01:00,SystemResetWarning,0827.3,5.00,000.00,027.5,025.2,000.0,035.9,029.0,17.9,0000.0,0011.19,0003.11,0002.34
2023-09-20 21:02:00,SystemResetWarning,0827.3,5.00,000.00,027.5,025.6,000.0,035.9,029.1,18.0,0000.0,0010.79,0003.13,0002.36
2023-09-20 21:03:00,SystemResetWarning,0827.3,4.99,000.00,027.6,025.9,000.0,035.9,029.2,17.0,0000.0,0011.15,0003.11,0002.36
2023-09-20 21:04:00,SystemResetWarning,0827.3,5.01,000.00,027.6,026.2,000.0,036.0,029.3,17.0,0000.0,0011.06,0003.12,0002.39
2023-09-20 21:05:00,SystemResetWarning,0827.3,5.00,000.00,027.7,026.5,000.0,036.0,029.4,17.2,0000.0,0009.83,0003.07,0002.39
2023-09-20 21:06:00,SystemResetWarning,0827.2,5.00,000.00,027.7,026.7,000.0,036.0,029.5,17.3,0000.0,0009.36,0003.01,0002.41
2023-09-20 21:07:00,SystemResetWarning,0827.3,4.99,000.00,027.8,026.9,000.0,036.0,029.6,17.1,0000.0,0010.57,0003.07,0002.43
2023-09-20 21:08:00,SystemResetWarning,0827.2,5.00,000.00,027.9,026.9,000.0,036.1,029.6,17.1,0000.0,0010.16,0003.11,0002.44
2023-09-20 21:09:00,SystemResetWarning,0827.2,4.99,000.00,027.8,025.4,000.0,036.0,029.2,17.1,0000.0,0010.09,0003.14,0002.46
2023-09-20 21:10:00,SystemResetWarning,0827.2,5.02,000.00,027.7,024.1,000.0,036.0,028.9,17.3,0000.0,0009.47,0003.16,0002.49
2023-09-20 21:11:00,SystemResetWarning,0827.2,5.01,000.00,027.6,024.2,000.0,035.9,029.0,17.9,0000.0,0009.49,0003.17,0002.50
2023-09-20 21:12:00,SystemResetWarning,0827.1,5.00,000.00,027.6,024.5,000.0,035.9,029.0,18.5,0000.0,0009.53,0003.18,0002.52
2023-09-20 21:13:00,SystemResetWarning,0827.1,5.00,000.00,027.5,024.9,000.0,035.9,029.0,18.5,0000.0,0009.60,0003.20,0002.52
2023-09-20 21:14:00,SystemResetWarning,0827.1,4.98,000.00,027.6,025.3,000.0,035.9,029.1,18.0,0000.0,0009.14,0003.22,0002.53
2023-09-20 21:15:00,SystemResetWarning,0827.2,5.00,000.00,027.6,025.7,000.0,036.0,029.2,17.8,0000.0,0009.24,0003.23,0002.53
2023-09-20 21:16:00,SystemResetWarning,0827.1,5.00,000.00,027.6,026.0,000.0,036.0,029.3,17.4,0000.0,0009.29,0003.25,0002.53
2023-09-20 21:17:00,SystemResetWarning,0827.2,5.02,000.00,027.7,026.3,000.0,036.0,029.4,17.0,0000.0,0009.27,0003.25,0002.52
2023-09-20 21:18:00,SystemResetWarning,0827.2,4.99,000.00,027.7,026.6,000.0,036.0,029.5,16.9,0000.0,0008.71,0003.26,0002.53
2023-09-20 21:19:00,SystemResetWarning,0827.1,4.99,000.00,027.8,026.8,000.0,036.0,029.5,16.9,0000.0,0008.15,0003.25,0002.53
2023-09-20 21:20:00,SystemResetWarning,0827.1,4.99,000.00,027.9,026.9,000.0,036.1,029.6,17.3,0000.0,0008.26,0003.25,0002.53
2023-09-20 21:21:00,SystemResetWarning,0827.1,5.00,000.00,027.9,025.9,000.0,036.1,029.4,17.1,0000.0,0008.31,0003.25,0002.51
2023-09-20 21:22:00,SystemResetWarning,0827.1,5.00,000.00,027.7,024.3,000.0,036.0,029.0,17.2,0000.0,0008.28,0003.24,0002.51
2023-09-20 21:23:00,SystemResetWarning,0827.1,5.02,000.00,027.6,024.1,000.0,036.0,029.0,17.1,0000.0,0008.31,0003.23,0002.49
2023-09-20 21:24:00,SystemResetWarning,0827.2,5.00,000.00,027.6,024.4,000.0,036.0,028.9,16.8,0000.0,0008.24,0003.20,0002.48
2023-09-20 21:25:00,SystemResetWarning,0827.1,5.00,000.00,027.6,024.8,000.0,036.0,029.0,17.0,0000.0,0008.79,0003.22,0002.48
2023-09-20 21:26:00,SystemResetWarning,0827.1,5.00,000.00,027.6,025.2,000.0,036.0,029.1,17.3,0000.0,0009.36,0003.18,0002.46
2023-09-20 21:27:00,SystemResetWarning,0827.1,4.99,000.00,027.6,025.6,000.0,036.0,029.2,16.7,0000.0,0009.35,0003.17,0002.46
2023-09-20 21:28:00,SystemResetWarning,0827.1,5.00,000.00,027.6,026.0,000.0,036.0,029.3,16.5,0000.0,0009.00,0003.16,0002.46
2023-09-20 21:29:00,SystemResetWarning,0827.1,5.01,000.00,027.7,026.3,000.0,036.0,029.4,17.0,0000.0,0008.38,0003.16,0002.46
2023-09-20 21:30:00,SystemResetWarning,0827.1,5.00,000.00,027.7,026.5,000.0,036.0,029.5,16.2,0000.0,0008.55,0003.15,0002.46
2023-09-20 21:31:00,SystemResetWarning,0827.1,4.99,000.00,027.8,026.7,000.0,036.0,029.5,16.4,0000.0,0008.39,0003.13,0002.45
2023-09-20 21:32:00,SystemResetWarning,0827.1,4.98,000.00,027.8,026.0,000.0,036.0,029.4,16.2,0000.0,0008.44,0003.14,0002.44
2023-09-20 21:33:00,SystemResetWarning,0827.2,5.01,000.00,027.7,024.3,000.0,036.0,028.9,16.4,0000.0,0008.62,0003.18,0002.44
2023-09-20 21:34:00,SystemResetWarning,0827.2,5.00,000.00,027.6,024.0,000.0,035.9,028.9,16.3,0000.0,0008.68,0003.20,0002.44
2023-09-20 21:35:00,SystemResetWarning,0827.1,5.01,000.00,027.5,024.3,000.0,035.9,028.9,16.7,0000.0,0008.69,0003.23,0002.46
2023-09-20 21:36:00,SystemResetWarning,0827.2,5.00,000.00,027.5,024.6,000.0,035.9,028.9,16.4,0000.0,0008.18,0003.26,0002.46
2023-09-20 21:37:00,SystemResetWarning,0827.1,5.00,000.00,027.5,025.1,000.0,035.9,029.0,16.3,0000.0,0007.42,0003.31,0002.47
2023-09-20 21:38:00,SystemResetWarning,0827.1,5.00,000.00,027.5,025.5,000.0,035.9,029.1,16.3,0000.0,0009.77,0003.33,0002.49
2023-09-20 21:39:00,SystemResetWarning,0827.1,5.00,000.00,027.6,025.8,000.0,035.9,029.2,16.3,0000.0,0009.81,0003.35,0002.50
2023-09-20 21:40:00,SystemResetWarning,0827.1,4.98,000.00,027.6,026.1,000.0,035.9,029.3,16.5,0000.0,0009.82,0003.35,0002.49
2023-09-20 21:41:00,SystemResetWarning,0827.1,4.99,000.00,027.7,026.4,000.0,036.0,029.4,16.3,0000.0,0009.21,0003.31,0002.49
2023-09-20 21:42:00,SystemResetWarning,0827.1,5.00,000.00,027.7,026.6,000.0,036.0,029.5,16.1,0000.0,0009.35,0003.31,0002.49
2023-09-20 21:43:00,SystemResetWarning,0827.1,5.01,000.00,027.8,026.8,000.0,036.0,029.5,16.1,0000.0,0009.36,0003.31,0002.51
2023-09-20 21:44:00,SystemResetWarning,0827.1,5.00,000.00,027.8,026.5,000.0,036.0,029.4,16.0,0000.0,0009.27,0003.29,0002.51
2023-09-20 21:45:00,SystemResetWarning,0827.1,4.98,000.00,027.7,024.7,000.0,036.0,029.0,16.2,0000.0,0009.17,0003.27,0002.52
2023-09-20 21:46:00,SystemResetWarning,0827.0,5.01,000.00,027.6,023.9,000.0,035.9,028.8,16.7,0000.0,0009.13,0003.25,0002.51
2023-09-20 21:47:00,SystemResetWarning,0827.1,5.01,000.00,027.5,024.1,000.0,035.9,028.9,17.3,0000.0,0009.09,0003.23,0002.51
2023-09-20 21:48:00,SystemResetWarning,0827.0,4.99,000.00,027.5,024.4,000.0,035.9,028.9,17.1,0000.0,0009.73,0003.20,0002.50
2023-09-20 21:49:00,SystemResetWarning,0827.0,5.00,000.00,027.5,024.9,000.0,035.9,029.0,16.4,0000.0,0008.03,0003.18,0002.49
2023-09-20 21:50:00,SystemResetWarning,0827.0,5.00,000.00,027.5,025.3,000.0,035.9,029.1,16.6,0000.0,0008.62,0003.18,0002.47
2023-09-20 21:51:00,SystemResetWarning,0827.0,5.00,000.00,027.5,025.6,000.0,035.9,029.2,16.4,0000.0,0008.76,0003.19,0002.47
2023-09-20 21:52:00,SystemResetWarning,0827.0,5.01,000.00,027.6,026.0,000.0,035.9,029.3,16.8,0000.0,0009.53,0003.22,0002.46
2023-09-20 21:53:00,SystemResetWarning,0827.0,4.99,000.00,027.6,026.3,000.0,035.9,029.4,17.1,0000.0,0009.40,0003.24,0002.47
2023-09-20 21:54:00,SystemResetWarning,0827.0,4.99,000.00,027.7,026.5,000.0,036.0,029.4,16.1,0000.0,0009.29,0003.23,0002.44
2023-09-20 21:55:00,SystemResetWarning,0826.9,5.00,000.00,027.7,026.7,000.0,036.0,029.5,16.1,0000.0,0009.18,0003.19,0002.43
2023-09-20 21:56:00,SystemResetWarning,0827.0,5.00,000.00,027.8,026.7,000.0,036.0,029.5,16.3,0000.0,0010.24,0003.17,0002.42
2023-09-20 21:57:00,SystemResetWarning,0826.9,4.98,000.00,027.7,025.3,000.0,036.0,029.1,16.5,0000.0,0011.08,0003.18,0002.42
2023-09-20 21:58:00,SystemResetWarning,0826.9,5.01,000.00,027.6,024.1,000.0,035.9,028.8,16.5,0000.0,0011.35,0003.20,0002.40
2023-09-20 21:59:00,SystemResetWarning,0826.9,5.01,000.00,027.5,024.1,000.0,035.9,028.9,16.7,0000.0,0010.38,0003.21,0002.40
